Regional Weather Roundup
Issued by NWS

Home | Current Version | Previous Version | Text Only | Print | Product List | Glossary Off
Versions: 1 2 3 4 5 6 7 8 9 10 11 12 13 14 15 16 17 18 19 20 21 22 23 24 25 26 27 28 29 30 31 32 33 34 35 36 37 38 39 40 41 42 43 44 45 46 47 48 49 50

879
ASUS43 KDTX 260901
RWRMI
MICHIGAN HOURLY REGIONAL WEATHER ROUNDUP
NATIONAL WEATHER SERVICE DETROIT/PONTIAC MI
500 AM EDT THU APR 26 2018

NOTE: "FAIR" INDICATES FEW OR NO CLOUDS BELOW 12,000 FEET WITH NO
SIGNIFICANT WEATHER AND/OR OBSTRUCTION TO VISIBILITY.

MIZ047>049-052>055-059>063-066>070-074>076-081>083-261000-
SOUTHEAST LOWER MICHIGAN

CITY           SKY/WX    TMP DP  RH WIND       PRES   REMARKS
ADRIAN         FAIR      36  35  96 CALM      29.94S FOG
ALMA           FAIR      32  32 100 CALM      29.94S
ANN ARBOR      FOG       31  31 100 SW3       29.92F VSB 1/2
BAD AXE        FAIR      34  29  81 CALM      29.91S
CARO             N/A     28  27  94 CALM      29.92R FOG
DETROIT CITY   FAIR      38  34  85 W5        29.92F WCI  34
DETROIT        FAIR      40  36  86 W6        29.93S
FLINT          FAIR      32  31  96 W6        29.93R WCI  26
GROSSE ILE     FAIR      37  36  97 CALM      29.92S FOG
HILLSDALE      FAIR      32  32 100 SE3       29.91S FOG
HOWELL         FAIR      33  33  99 SW5       29.92S WCI  28

CITY           SKY/WX    TMP DP  RH WIND       PRES   REMARKS
JACKSON        FAIR      35  34  96 CALM      29.92F FOG
LAMBERTVILLE   FAIR      38  35  90 CALM      29.93S FOG
LANSING        FAIR      35  34  96 CALM      29.94R
LAPEER         FAIR      32  32  99 CALM      29.92R
MASON          FAIR      34  32  91 CALM      29.93S
MONROE         FOG       34  32  93 CALM      29.92S VSB 1
MT. CLEMENS    FAIR      37  37 100 W6        29.89F WCI  32
PONTIAC        FAIR      37  35  92 W3        29.90F
PORT HOPE        N/A     33  30  88 W6        29.88F WCI  28
PORT HURON     FAIR      34  32  93 CALM      29.91S
TRI CITIES     FAIR      35  29  78 W5        29.93S WCI  31
MIDLAND        FAIR      29  29 100 CALM      29.92S
TROY           FAIR      39  36  87 W5        29.93S
SAGINAW HB     FAIR      34  32  93 W3        29.93R
$$
MIZ043>046-050>051-056>058-064>065-071>073-077>080-261000-
SOUTHWEST LOWER MICHIGAN

CITY           SKY/WX    TMP DP  RH WIND       PRES   REMARKS
BATTLE CREEK   FAIR      34  31  88 CALM      29.93S
BENTON HARBOR  FAIR      31  28  89 CALM      29.95S
BIG RAPIDS     FAIR      28  25  89 CALM      29.93F
COLDWATER      FAIR      35  33  96 CALM      29.93S
HOLLAND        FAIR      35  29  78 CALM      29.96R
GRAND RAPIDS   FAIR      36  30  79 MISG      29.94S
IONIA          FAIR      36  32  87 CALM      29.94R
KALAMAZOO      FAIR      36  31  82 CALM      29.94S
LUDINGTON      FAIR      27  27 100 CALM      29.95S
MARSHALL       FAIR      34  33  98 CALM      29.93S
MOUNT PLEASANT FAIR      34  32  93 W3        29.93S
MUSKEGON       FAIR      29  24  82 CALM      29.96R
SOUTH HAVEN    FAIR      31  29  92 CALM      29.95S
$$
MIZ016>042-261000-
NORTHERN LOWER MICHIGAN

CITY           SKY/WX    TMP DP  RH WIND       PRES   REMARKS
ALPENA         FAIR      30  27  88 W5        29.91S WCI  25
BEAVER ISLAND  FAIR      27  27  97 CALM      29.92F
CADILLAC       FAIR      22  21  96 CALM      29.91S
CHARLEVOIX     FAIR      29  29 100 CALM      29.96F
FRANKFORT      FAIR      28  26  95 CALM      29.94S
GAYLORD        FAIR      26  24  92 W3        29.90F
HARBOR SPRINGS FAIR      29  28  96 CALM      29.93F
HOUGHTON LAKE  FAIR      30  25  81 NW6       29.92S WCI  24
MANISTEE       FAIR      26  24  92 CALM      29.95R
OSCODA         FAIR      30  25  83 CALM      29.91S
PELLSTON       FAIR      24  22  91 CALM      29.93S
ROGERS CITY    FAIR      30  25  82 W5        29.92S WCI  25
TRAVERSE CITY  FAIR      28  25  88 CALM      29.93F
$$
MIZ007>008-015-261000-
EASTERN UPPER MICHIGAN

CITY           SKY/WX    TMP DP  RH WIND       PRES   REMARKS
KINROSS        FAIR      25  23  92 CALM      29.89F
MACKINAC ISLAN FAIR      32  27  81 W8        29.91F WCI  25
NEWBERRY       FAIR      25  24  96 CALM      29.90S
MUNISING         N/A     35  24  64 SW12      29.88S WCI  27
$$
MIZ004>006-011>014-085-261000-
CENTRAL UPPER MICHIGAN

CITY           SKY/WX    TMP DP  RH WIND       PRES   REMARKS
MANISTIQUE     FAIR      24  22  94 CALM      29.91S
ESCANABA       FAIR      25  23  92 CALM      29.92S
MENOMINEE      FAIR      28  25  88 SW3       29.93F
SAWYER-GWINN   FAIR      29  22  75 CALM      29.88F
$$
MIZ001>003-009>011-084-261000-
WESTERN UPPER MICHIGAN

CITY           SKY/WX    TMP DP  RH WIND       PRES   REMARKS
IRON MOUNTAIN  FAIR      28  24  85 CALM      29.87F
HOUGHTON       FAIR      36  18  48 CALM      29.82F
COPPER HARBOR    N/A     39  20  46 VRB3      29.82F
IRONWOOD       FAIR      43  22  43 SW9       29.86F
$$

ABBREVIATIONS USED IN REMARKS
   TC - TEMPERATURE IN CELSIUS
  WCI - WIND CHILL INDEX
   HX - HEAT INDEX
  VSB - VISIBILITY





USA.gov is the U.S. government's official web portal to all federal, state and local government web resources and services.